EW7262 Weather Reports


Display with metric or nautical units.
time (UTC)temp
F
wind
direction
speed
MPH
gust
MPH
rain 1hr
in
rain 24hr
in
rain mn
in
humidity
%
barometer
mb
20260504081519 49 292 1.0 3.0 0.00 0.02 0.00 43 1000.9
20260504044614 49 360 1.0 3.0 0.00 0.02 0.02 38 1002.3
20260504043054 50 295 1.0 4.0 0.00 0.02 0.02 37 1002.4
20260504041553 50 295 2.0 4.0 0.00 0.02 0.02 37 1002.5
20260504040109 51 360 2.0 4.0 0.00 0.02 0.02 36 1002.6
20260504034558 51 360 1.0 4.0 0.00 0.02 0.02 36 1002.6
20260504033054 51 360 1.0 2.0 0.00 0.02 0.02 35 1002.6
20260504031551 52 360 2.0 4.0 0.00 0.02 0.02 34 1002.4
20260504030050 53 360 1.0 3.0 0.00 0.02 0.02 33 1002.4
20260504024550 54 360 2.0 4.0 0.00 0.02 0.02 32 1002.4
20260504023049 55 360 2.0 4.0 0.00 0.02 0.02 31 1002.2
20260504021549 56 300 2.0 4.0 0.00 0.02 0.02 30 1002.3
20260504020047 58 302 2.0 5.0 0.00 0.02 0.02 29 1002.2
20260504014546 61 311 3.0 5.0 0.00 0.02 0.02 27 1002.4
20260504013052 62 319 5.0 13.0 0.00 0.02 0.02 26 1002.6
20260504011543 63 312 4.0 12.0 0.00 0.02 0.02 25 1002.7
20260504010049 64 319 6.0 11.0 0.00 0.02 0.02 25 1002.7
20260504004541 65 315 7.0 13.0 0.00 0.02 0.02 24 1002.8
20260504003039 65 324 8.0 12.0 0.00 0.02 0.02 25 1002.9
20260504001540 66 355 9.0 13.0 0.00 0.02 0.02 25 1003.0
20260504000041 66 309 9.0 17.0 0.00 0.02 0.02 25 1003.2
20260503234535 67 301 8.0 15.0 0.00 0.02 0.02 23 1003.3
20260503233033 67 327 8.0 17.0 0.00 0.02 0.02 24 1003.4
20260503231533 66 13 6.0 12.0 0.00 0.02 0.02 28 1003.7
20260503230037 68 299 8.0 14.0 0.00 0.02 0.02 25 1003.6
20260503224534 68 314 8.0 17.0 0.00 0.02 0.02 24 1003.6
20260503223030 68 5 6.0 16.0 0.00 0.02 0.02 26 1003.7
20260503221527 67 313 10.0 13.0 0.00 0.02 0.02 25 1003.8
20260503220028 68 284 9.0 20.0 0.01 0.02 0.02 26 1004.0
20260503214527 68 309 10.0 18.0 0.01 0.02 0.02 27 1004.3
20260503213021 68 344 7.0 16.0 0.01 0.02 0.02 28 1004.6
20260503211517 67 289 9.0 17.0 0.01 0.02 0.02 28 1004.7
20260503210015 66 326 8.0 17.0 0.00 0.01 0.01 33 1004.9
20260503204519 65 355 2.0 13.0 0.00 0.01 0.01 34 1005.0
20260503203012 64 319 7.0 13.0 0.00 0.01 0.01 37 1005.3
20260503201511 59 263 8.0 13.0 0.01 0.01 0.01 46 1005.5
20260503200011 54 261 3.0 7.0 0.01 0.01 0.01 51 1005.5
20260503194508 50 360 1.0 2.0 0.01 0.01 0.01 64 1005.7
20260503193006 50 360 4.0 13.0 0.01 0.01 0.01 65 1006.2
20260503191516 56 282 23.0 35.0 0.00 0.00 0.00 45 1006.5
20260503190007 62 244 7.0 12.0 0.00 0.00 0.00 33 1006.0
20260503184502 65 236 10.0 18.0 0.00 0.00 0.00 31 1006.1
20260503183058 66 193 3.0 15.0 0.00 0.00 0.00 33 1006.5
20260503181556 64 178 5.0 17.0 0.00 0.00 0.00 36 1006.8
20260503174547 63 193 6.0 11.0 0.00 0.00 0.00 36 1007.4
20260503173051 63 174 3.0 14.0 0.00 0.00 0.00 38 1007.6
20260503171542 62 360 4.0 11.0 0.00 0.00 0.00 36 1008.0